Regional Weather Roundup
Issued by NWS

Home | Current Version | Previous Version | Graphics & Text | Print | Product List | Glossary Off
Versions: 1 2 3 4 5 6 7 8 9 10 11 12 13 14 15 16 17 18 19 20 21 22 23 24 25 26 27 28 29 30 31 32 33 34 35 36 37 38 39 40 41 42 43 44 45 46 47 48 49 50

000
ASUS43 KOAX 301810
RWRNE

WEATHER ROUNDUP FOR NEBRASKA
NATIONAL WEATHER SERVICE OMAHA NE
100 PM CDT TUE SEP 30 2014

NOTES: SATELLITE DATA IS BEING USED TO AUGMENT CLOUD COVER ABOVE
       12000 FEET.
       "FAIR" INDICATES FEW OR NO CLOUDS BELOW 12,000 FEET WITH NO
       SIGNIFICANT WEATHER AND/OR OBSTRUCTIONS TO VISIBILITY.

  * THESE STATIONS DO NOT REPORT WEATHER SUCH AS RAIN...SNOW OR FOG.

NEZ001>004-019>022-054>056-301900-
NEBRASKA PANHANDLE

CITY           SKY/WX    TMP DP  RH WIND       PRES   REMARKS
SCOTTSBLUFF    PTSUNNY   69  44  40 W24G35    29.73F
6HR MIN TEMP:  52; 6HR MAX TEMP:  69; 6HR PCP:  0.01;

ALLIANCE       CLOUDY    60  45  57 W23G32    29.72R
6HR MIN TEMP:  50; 6HR MAX TEMP:  60; 6HR PCP:  0.07;

CHADRON        CLOUDY    59  49  69 W26G36    29.64R
6HR MIN TEMP:  51; 6HR MAX TEMP:  59; 6HR PCP:  0.08;

KIMBALL        SUNNY     66  36  32 W22G36    29.79F
SIDNEY         MOSUNNY   69  39  33 W30G44    29.81S
6HR MIN TEMP:  49; 6HR MAX TEMP:  69;

$$

NEZ057>060-069>072-079>082-301900-
SOUTHWEST NEBRASKA

CITY           SKY/WX    TMP DP  RH WIND       PRES   REMARKS
NORTH PLATTE   PTSUNNY   74  41  30 SW17G30   29.75F
6HR MIN TEMP:  52; 6HR MAX TEMP:  74;

IMPERIAL       SUNNY     70  46  42 SW13      29.78F
6HR MIN TEMP:  49; 6HR MAX TEMP:  70;

LEXINGTON      SUNNY     72  53  51 S15       29.78S
MCCOOK         SUNNY     74  48  39 SE9       29.78F
6HR MIN TEMP:  50; 6HR MAX TEMP:  74;

OGALLALA       MOSUNNY   73  42  33 W22G30    29.76S
$$

NEZ005>010-023>029-035>040-094-301900-
NORTH CENTRAL NEBRASKA

CITY           SKY/WX    TMP DP  RH WIND       PRES   REMARKS
VALENTINE      CLOUDY    66  46  48 SW29G45   29.60S
6HR MIN TEMP:  55; 6HR MAX TEMP:  66;

AINSWORTH      MOSUNNY   70  43  37 SW31G37   29.66R
BROKEN BOW     SUNNY     74  48  39 S17G26    29.74F
6HR MIN TEMP:  58; 6HR MAX TEMP:  75;

O`NEILL        SUNNY     75  51  42 S22       29.70F
ORD            SUNNY     75  47  36 SW16      29.73F
6HR MIN TEMP:  61; 6HR MAX TEMP:  75;

THEDFORD       CLOUDY    68  45  42 SW23G32   29.72S
$$

NEZ041-046>049-061>064-073>077-083>087-301900-
SOUTH CENTRAL NEBRASKA

CITY           SKY/WX    TMP DP  RH WIND       PRES   REMARKS
GRAND ISLAND   PTSUNNY   73  59  61 S14       29.78F
6HR MIN TEMP:  64; 6HR MAX TEMP:  75;

AURORA         PTSUNNY   70  62  75 S12G18    29.79F
HASTINGS       MOSUNNY   70  58  65 S14       29.79F
6HR MIN TEMP:  64; 6HR MAX TEMP:  71; 6HR PCP: TRACE;

HEBRON         RAIN      64  61  91 S9        29.83S
HOLDREGE       SUNNY     73  45  36 S7        29.79F
KEARNEY *      SUNNY     75  48  38 SE9       29.79S
YORK           CLOUDY    64  63  94 S9        29.82F
$$

NEZ011>018-030>034-042>045-301900-
NORTHEAST NEBRASKA

CITY           SKY/WX    TMP DP  RH WIND       PRES   REMARKS
NORFOLK        PTSUNNY   70  62  76 S23G29    29.77F
6HR MIN TEMP:  62; 6HR MAX TEMP:  71; 6HR PCP:  0.15;

ALBION         MOSUNNY   73  56  55 S15G23    29.76F
BLAIR          LGT RAIN  70  61  72 S8        29.84F
COLUMBUS *     CLOUDY    64  61  88 S10       29.82F
FREMONT        RAIN      66  64  92 SE7       29.83F
TEKAMAH        LGT RAIN  67  61  81 SE8       29.83F
6HR MIN TEMP:  62; 6HR MAX TEMP:  68; 6HR PCP:  0.01;

WAYNE          CLOUDY    66  63  90 S13G20    29.80S
$$

NEZ050>053-065>068-078-088>093-301900-
SOUTHEAST NEBRASKA

CITY           SKY/WX    TMP DP  RH WIND       PRES   REMARKS
LINCOLN        LGT RAIN  65  62  90 S9        29.85F
6HR MIN TEMP:  64; 6HR MAX TEMP:  69; 6HR PCP:  0.21;

OMAHA EPPLEY   CLOUDY    75  60  59 S7        29.83F
6HR MIN TEMP:  64; 6HR MAX TEMP:  76;

BEATRICE       LGT RAIN  66  62  89 S5        29.85S
FALLS CITY     MOSUNNY   82  58  43 S12G24    29.83F
6HR MIN TEMP:  59; 6HR MAX TEMP:  84; 6HR PCP: TRACE;

NEBRASKA CITY  CLOUDY    78  56  46 S7        29.83F
PLATTSMOUTH      N/A     77  58  50 S9        29.83F
$$

NEZ044-045-051>053-067-301900-
OMAHA AREA

CITY           SKY/WX    TMP DP  RH WIND       PRES   REMARKS
OMAHA EPPLEY   CLOUDY    75  60  59 S7        29.83F
6HR MIN TEMP:  64; 6HR MAX TEMP:  76;

BLAIR          LGT RAIN  70  61  72 S8        29.84F
FREMONT        RAIN      66  64  92 SE7       29.83F
MILLARD        CLOUDY    73  61  67 SW5       29.83F
OFFUTT AFB     CLOUDY    76  64  65 VRB2      29.82F
PLATTSMOUTH      N/A     77  58  50 S9        29.83F
WAHOO          RAIN      65  62  89 S8        29.83F
$$


USA.gov is the U.S. government's official web portal to all federal, state and local government web resources and services.